1502150400.08,28665,19.94,74470.3,4.49,-29.39,-31.95,0,*74
1502150401.31,28666,19.94,74468.0,4.49,-29.39,-32.01,0,*79
1502150402.57,28667,19.94,74468.8,4.47,-29.39,-32.01,0,*76
1502150403.82,28668,19.88,74466.3,4.47,-29.39,-32.01,0,*79
1502150405.11,28669,19.94,74470.3,4.47,-29.35,-31.85,0,*7B
1502150406.31,28670,19.94,74466.5,4.45,-29.07,-31.67,0,*7C
1502150407.51,28671,19.88,74466.8,4.45,-29.45,-32.01,0,*78
1502150408.79,28672,19.94,74468.3,4.47,-29.51,-31.91,0,*76
1502150410.03,28673,19.88,74462.8,4.45,-29.45,-32.07,0,*7C
1502150411.25,28674,19.88,74464.0,4.47,-29.23,-31.79,0,*73
1502150412.48,28675,19.88,74466.5,4.45,-29.23,-31.85,0,*73
1502150413.73,28676,19.88,74468.3,4.45,-29.29,-31.91,0,*7F
1502150414.92,28677,19.94,74468.5,4.45,-29.07,-31.67,0,*7B
1502150416.18,28678,19.94,74470.8,4.45,-28.91,-31.57,0,*79
1502150417.42,28679,19.94,74468.0,4.45,-28.75,-31.51,0,*74
1502150418.65,28680,19.88,74466.5,4.45,-29.23,-31.85,0,*79
1502150419.91,28681,19.88,74466.0,4.45,-28.91,-31.51,0,*79
1502150421.16,28682,19.94,74468.0,4.45,-28.91,-31.57,0,*7C
1502150422.35,28683,19.88,74466.8,4.45,-28.97,-31.67,0,*78
1502150423.6,28684,19.94,74470.0,4.47,-29.01,-31.67,0,*73
1502150424.83,28685,19.94,74466.3,4.45,-29.23,-31.91,0,*79
1502150426.09,28686,19.88,74466.5,4.47,-28.91,-31.79,0,*76
1502150427.28,28687,19.88,74464.5,4.45,-28.97,-31.67,0,*7C
1502150428.53,28688,19.94,74470.3,4.45,-29.13,-31.85,0,*72
1502150429.76,28689,19.88,74466.0,4.47,-29.07,-31.79,0,*77
1502150430.98,28690,19.94,74466.0,4.45,-29.23,-31.85,0,*78
1502150432.18,28691,19.94,74468.3,4.45,-28.97,-31.67,0,*7B
1502150433.42,28692,19.88,74466.5,4.43,-29.07,-31.73,0,*73
1502150434.67,28693,19.88,74466.8,4.45,-29.13,-31.73,0,*71
1502150435.92,28694,19.88,74466.0,4.45,-29.29,-31.91,0,*73
1502150437.18,28695,19.88,74466.8,4.45,-29.39,-32.07,0,*7F
1502150438.4,28696,19.88,74464.5,4.45,-29.23,-31.85,0,*7E
1502150439.62,28697,19.94,74470.3,4.41,-29.13,-31.79,0,*7B
1502150440.88,28698,19.88,74466.5,4.41,-29.29,-31.95,0,*7F
1502150442.15,28699,19.88,74466.5,4.43,-29.29,-31.85,0,*7D
1502150443.35,28700,19.94,74470.0,4.41,-29.61,-32.13,0,*7E
1502150444.58,28701,19.94,74466.3,4.41,-29.51,-32.13,0,*7C
1502150445.82,28702,19.94,74470.8,4.41,-29.29,-31.91,0,*79
1502150447.07,28703,19.94,74468.5,4.41,-29.17,-31.91,0,*75
1502150448.31,28704,19.88,74466.8,4.41,-29.45,-31.95,0,*71
1502150449.53,28705,19.94,74470.8,4.41,-29.29,-31.79,0,*78
1502150450.78,28706,19.94,74466.5,4.41,-29.29,-31.91,0,*7D
1502150452.03,28707,19.88,74464.0,4.41,-29.01,-31.73,0,*7A
1502150453.23,28708,19.88,74464.8,4.41,-28.97,-31.45,0,*7E
1502150454.45,28709,19.94,74464.0,4.41,-29.13,-31.79,0,*7D
1502150455.73,28710,19.88,74466.3,4.43,-28.91,-31.51,0,*76
1502150456.94,28711,19.88,74466.8,4.41,-28.97,-31.45,0,*76
1502150458.19,28712,19.88,74464.0,4.41,-29.01,-31.61,0,*7D
1502150459.41,28713,19.94,74470.0,4.41,-28.97,-31.57,0,*77
1502150460.66,28714,19.88,74466.5,4.43,-28.75,-31.33,0,*7C
1502150461.88,28715,19.88,74464.3,4.41,-29.13,-31.79,0,*70
1502150463.1,28716,19.94,74464.0,4.41,-28.97,-31.61,0,*77
1502150464.32,28717,19.88,74464.8,4.41,-28.97,-31.73,0,*75
1502150465.57,28718,19.88,74466.5,4.41,-29.29,-31.91,0,*72
1502150466.82,28719,19.88,74464.3,4.43,-29.29,-32.01,0,*7B
1502150468.01,28720,19.94,74464.5,4.41,-28.97,-31.79,0,*7B
1502150469.3,28721,19.88,74464.3,4.39,-29.51,-32.19,0,*7B
1502150470.52,28722,19.88,74462.0,4.39,-29.07,-31.67,0,*71
1502150471.8,28723,19.94,74466.3,4.39,-29.01,-31.61,0,*70
1502150473.02,28724,19.94,74466.3,4.35,-29.07,-31.67,0,*7B
1502150474.29,28725,19.88,74466.8,4.39,-28.79,-31.51,0,*7B
1502150475.54,28726,19.88,74466.8,4.39,-29.23,-31.85,0,*7F
1502150476.82,28727,19.88,74462.5,4.39,-28.91,-31.51,0,*7F
1502150478.04,28728,19.88,74466.8,4.39,-29.07,-31.67,0,*7B
1502150479.27,28729,19.88,74464.5,4.39,-29.07,-31.79,0,*75
1502150480.54,28730,19.88,74464.3,4.35,-28.79,-31.51,0,*73
1502150481.79,28731,19.88,74464.3,4.39,-29.07,-31.85,0,*7F
1502150483.04,28732,19.88,74464.3,4.39,-29.35,-32.01,0,*72
1502150484.32,28733,19.94,74466.3,4.39,-29.17,-31.95,0,*7D
1502150485.6,28734,19.94,74468.3,4.39,-28.91,-31.61,0,*7E
1502150486.85,28735,19.88,74466.0,4.39,-28.85,-31.51,0,*79
1502150488.09,28736,19.88,74466.3,4.39,-28.85,-31.45,0,*7F
1502150489.33,28737,19.88,74464.8,4.35,-28.47,-31.29,0,*76
1502150490.56,28738,19.94,74468.0,4.35,-28.53,-31.29,0,*7C
1502150491.82,28739,19.88,74466.0,4.39,-28.79,-31.45,0,*73
1502150493.07,28740,19.94,74466.3,4.39,-28.85,-31.61,0,*78
1502150494.35,28741,19.94,74466.0,4.39,-28.91,-31.51,0,*7F
1502150495.62,28742,19.94,74466.8,4.35,-28.79,-31.61,0,*75
1502150496.85,28743,19.88,74464.8,4.41,-28.75,-31.45,0,*7D
1502150498.12,28744,19.88,74464.8,4.43,-28.75,-31.57,0,*7B
1502150499.38,28745,19.94,74466.3,4.39,-29.35,-32.01,0,*72
1502150500.6,28746,19.88,74464.8,4.41,-28.75,-31.45,0,*78
1502150501.85,28747,19.94,74470.0,4.41,-29.13,-31.73,0,*7D
1502150503.08,28748,19.94,74468.8,4.39,-28.69,-31.45,0,*74
1502150504.35,28749,19.88,74464.3,4.39,-28.79,-31.51,0,*71
1502150505.63,28750,19.94,74468.3,4.35,-28.79,-31.61,0,*76
1502150506.88,28751,19.88,74464.3,4.39,-28.85,-31.61,0,*78
1502150508.11,28752,19.88,74462.0,4.41,-28.79,-31.45,0,*71
1502150509.37,28753,19.88,74464.0,4.39,-28.85,-31.51,0,*79
1502150510.62,28754,19.88,74462.3,4.41,-28.63,-31.39,0,*77
1502150511.87,28755,19.88,74466.0,4.39,-28.91,-31.67,0,*7F
1502150513.14,28756,19.88,74462.5,4.39,-28.79,-31.51,0,*7F
1502150514.39,28757,19.88,74466.5,4.39,-28.91,-31.67,0,*7D
1502150515.62,28758,19.88,74466.8,4.39,-28.85,-31.67,0,*77
1502150516.89,28759,19.88,74464.8,4.39,-28.79,-31.61,0,*73
1502150518.15,28760,19.88,74462.8,4.35,-28.85,-31.61,0,*76
1502150519.4,28761,19.88,74466.5,4.39,-29.07,-31.95,0,*7B
1502150520.62,28762,19.88,74466.8,4.39,-29.07,-31.79,0,*7A
1502150521.87,28763,19.94,74464.3,4.39,-28.91,-31.67,0,*7A
1502150523.12,28764,19.88,74466.3,4.39,-29.01,-31.79,0,*7A
1502150524.37,28765,19.94,74466.0,4.39,-29.17,-31.79,0,*7C
1502150525.64,28766,19.88,74464.8,4.39,-28.79,-31.51,0,*7C
1502150526.92,28767,19.88,74462.3,4.39,-29.01,-31.61,0,*70
1502150528.17,28768,19.88,74466.0,4.35,-29.07,-31.85,0,*7F
1502150529.42,28769,19.88,74464.8,4.35,-29.07,-31.85,0,*7E
1502150530.69,28770,19.88,74466.0,4.35,-29.01,-31.85,0,*70
1502150531.92,28771,19.88,74462.0,4.35,-29.07,-31.79,0,*74
1502150533.17,28772,19.88,74462.0,4.35,-28.79,-31.45,0,*70
1502150534.45,28773,19.88,74464.8,4.39,-28.79,-31.51,0,*78
1502150535.72,28774,19.88,74466.8,4.35,-29.17,-31.85,0,*73
1502150536.97,28775,19.88,74464.8,4.35,-29.17,-31.79,0,*71
1502150538.22,28776,19.88,74464.3,4.35,-28.85,-31.61,0,*71
1502150539.47,28777,19.94,74464.0,4.35,-28.91,-31.79,0,*7C
1502150540.75,28778,19.88,74462.3,4.35,-29.17,-31.85,0,*7F
1502150541.97,28779,19.88,74462.8,4.35,-29.07,-31.79,0,*7C
1502150543.19,28780,19.88,74462.5,4.35,-29.07,-31.79,0,*7A
1502150544.44,28781,19.94,74466.3,4.35,-28.91,-31.67,0,*7A
1502150545.71,28782,19.88,74464.5,4.35,-29.17,-31.85,0,*7A
1502150546.94,28783,19.88,74464.8,4.35,-28.85,-31.67,0,*7D
1502150548.19,28784,19.88,74466.0,4.35,-28.91,-31.79,0,*70
1502150549.42,28785,19.94,74466.5,4.33,-29.07,-31.91,0,*7F
1502150550.67,28786,19.94,74464.0,4.33,-29.13,-31.91,0,*79
1502150551.9,28787,19.94,74464.3,4.33,-29.29,-32.01,0,*7B
1502150553.15,28788,19.88,74460.0,4.31,-28.85,-31.57,0,*71
1502150554.43,28789,19.88,74464.0,4.31,-29.13,-31.85,0,*71
1502150555.7,28790,19.88,74466.3,4.31,-29.13,-31.91,0,*7C
1502150556.93,28791,19.88,74460.8,4.33,-29.07,-31.85,0,*7F
1502150558.18,28792,19.88,74462.8,4.31,-28.97,-31.73,0,*7F
1502150559.43,28793,19.88,74464.8,4.31,-28.97,-31.85,0,*77
1502150560.71,28794,19.88,74466.5,4.31,-29.13,-31.85,0,*7D
1502150561.91,28795,19.88,74464.8,4.33,-28.85,-31.67,0,*7C
1502150563.11,28796,19.88,74466.3,4.33,-28.97,-31.67,0,*7C
1502150564.32,28797,19.88,74460.3,4.33,-28.85,-31.67,0,*7E
1502150565.59,28798,19.88,74464.5,4.31,-29.13,-31.85,0,*71
1502150566.87,28799,19.88,74462.0,4.31,-29.29,-31.91,0,*7C
1502150568.13,28800,19.88,74462.8,4.31,-29.07,-31.85,0,*7A
1502150569.38,28801,19.88,74464.3,4.31,-29.29,-32.01,0,*78
1502150570.67,28802,19.88,74464.8,4.31,-29.39,-32.07,0,*7C
1502150571.92,28803,19.88,74464.8,4.31,-29.07,-31.91,0,*7C
1502150573.18,28804,19.88,74462.3,4.31,-28.91,-31.67,0,*7C
1502150574.41,28805,19.88,74466.3,4.29,-29.01,-31.79,0,*73
1502150575.66,28806,19.94,74464.0,4.31,-28.97,-31.85,0,*74
1502150576.91,28807,19.94,74466.0,4.29,-28.75,-31.57,0,*7F
1502150578.17,28808,19.88,74460.5,4.29,-29.13,-31.95,0,*7F
1502150579.42,28809,19.88,74464.3,4.29,-29.13,-31.91,0,*7A
1502150580.67,28810,19.94,74466.3,4.29,-29.13,-31.91,0,*72
1502150581.92,28811,19.88,74466.5,4.29,-29.13,-31.91,0,*73
1502150583.12,28812,19.88,74462.3,4.29,-28.97,-31.79,0,*7B
1502150584.35,28813,19.88,74462.8,4.29,-28.97,-31.73,0,*70
1502150585.6,28814,19.88,74462.8,4.29,-29.01,-31.91,0,*75
1502150586.85,28815,19.88,74466.5,4.29,-28.75,-31.57,0,*7C
1502150588.08,28816,19.88,74462.8,4.29,-28.97,-31.61,0,*76
1502150589.34,28817,19.94,74466.8,4.29,-29.01,-31.91,0,*76
1502150590.59,28818,19.88,74464.5,4.29,-28.79,-31.57,0,*7D
1502150591.84,28819,19.88,74464.8,4.29,-28.75,-31.57,0,*70
1502150593.07,28820,19.88,74462.0,4.29,-28.59,-31.45,0,*77
1502150594.31,28821,19.88,74464.8,4.29,-28.63,-31.45,0,*7F
1502150595.53,28822,19.88,74464.3,4.29,-28.97,-31.73,0,*72
1502150596.79,28823,19.88,74460.3,4.29,-28.91,-31.73,0,*75
1502150598.01,28824,19.88,74466.3,4.27,-29.07,-31.95,0,*7A
1502150599.26,28825,19.88,74462.5,4.29,-28.79,-31.57,0,*73
1502150600.49,28826,19.88,74462.5,4.29,-29.13,-31.79,0,*71
1502150601.74,28827,19.88,74464.8,4.29,-28.79,-31.61,0,*74
1502150602.94,28828,19.88,74466.5,4.27,-29.23,-32.13,0,*7D
1502150604.16,28829,19.88,74466.3,4.29,-28.97,-31.73,0,*79
1502150605.41,28830,19.94,74466.5,4.27,-29.17,-31.95,0,*7E
1502150606.6,28831,19.88,74460.8,4.27,-28.97,-31.67,0,*7B
1502150607.82,28832,19.88,74466.3,4.27,-29.17,-32.01,0,*72
1502150609.04,28833,19.88,74464.5,4.27,-29.01,-31.79,0,*78
1502150610.26,28834,19.88,74462.8,4.27,-29.17,-32.01,0,*74
1502150611.51,28835,19.88,74460.8,4.29,-28.91,-31.73,0,*72
1502150612.71,28836,19.88,74462.5,4.27,-29.07,-31.79,0,*7B
1502150613.96,28837,19.88,74462.5,4.27,-29.39,-32.19,0,*72
1502150615.21,28838,19.88,74460.5,4.27,-29.01,-31.85,0,*70
1502150616.45,28839,19.94,74464.5,4.25,-29.01,-31.67,0,*7F
1502150617.67,28840,19.88,74464.5,4.27,-29.17,-32.01,0,*77
1502150618.92,28841,19.94,74466.3,4.25,-29.17,-32.01,0,*74
1502150620.17,28842,19.88,74462.5,4.25,-29.35,-32.13,0,*74
1502150621.44,28843,19.88,74466.0,4.25,-29.17,-31.95,0,*78
1502150622.69,28844,19.88,74462.5,4.25,-29.01,-31.79,0,*7A
1502150623.97,28845,19.88,74460.8,4.25,-29.01,-31.95,0,*79
1502150625.17,28846,19.88,74462.0,4.23,-29.07,-32.01,0,*74
1502150626.38,28847,19.88,74464.5,4.25,-28.97,-31.79,0,*77
1502150627.61,28848,19.88,74464.0,4.23,-29.01,-31.67,0,*7F
1502150628.88,28849,19.88,74464.0,4.25,-28.79,-31.51,0,*73
1502150630.13,28850,19.94,74464.3,4.25,-28.85,-31.51,0,*78
1502150631.38,28851,19.88,74464.5,4.25,-29.17,-32.01,0,*75
1502150632.6,28852,19.88,74464.3,4.23,-29.23,-31.85,0,*78
1502150633.8,28853,19.88,74464.3,4.23,-29.07,-31.67,0,*73
1502150635.02,28854,19.94,74464.8,4.25,-28.97,-31.79,0,*75
1502150636.24,28855,19.94,74466.8,4.23,-29.07,-31.85,0,*79
1502150637.46,28856,19.88,74460.3,4.25,-28.97,-31.79,0,*77
1502150638.68,28857,19.88,74460.5,4.23,-29.07,-31.91,0,*7E
1502150639.93,28858,19.88,74460.0,4.23,-29.01,-31.73,0,*7B
1502150641.15,28859,19.88,74462.0,4.25,-28.97,-31.67,0,*77
1502150642.4,28860,19.88,74464.8,4.23,-28.91,-31.73,0,*78
1502150643.62,28861,19.88,74462.5,4.25,-29.07,-31.79,0,*7B
1502150644.86,28862,19.88,74464.3,4.23,-29.13,-31.91,0,*7D
1502150646.14,28863,19.88,74466.3,4.25,-29.01,-31.61,0,*76
1502150647.36,28864,19.88,74466.0,4.23,-28.85,-31.57,0,*7F
1502150648.59,28865,19.88,74460.3,4.23,-28.85,-31.51,0,*78
1502150649.81,28866,19.88,74464.8,4.23,-28.85,-31.57,0,*7D
1502150651.04,28867,19.88,74460.0,4.23,-28.85,-31.51,0,*7A
1502150652.26,28868,19.88,74460.5,4.23,-28.85,-31.57,0,*73
1502150653.54,28869,19.88,74462.8,4.25,-28.79,-31.51,0,*71
1502150654.79,28870,19.88,74460.8,4.23,-28.75,-31.39,0,*7D
1502150656.04,28871,19.88,74462.8,4.25,-28.85,-31.61,0,*78
1502150657.26,28872,19.88,74460.3,4.25,-28.85,-31.67,0,*7D
1502150658.48,28873,19.88,74462.8,4.23,-28.85,-31.57,0,*79
1502150659.76,28874,19.88,74464.3,4.25,-28.79,-31.61,0,*7E
1502150661.03,28875,19.88,74462.8,4.25,-28.79,-31.51,0,*7C
1502150662.28,28876,19.88,74466.3,4.23,-28.75,-31.51,0,*75
1502150663.5,28877,19.88,74462.0,4.23,-28.69,-31.39,0,*77
1502150664.75,28878,19.88,74460.8,4.25,-28.85,-31.51,0,*72
1502150665.98,28879,19.94,74464.0,4.25,-28.85,-31.67,0,*76
1502150667.17,28880,19.88,74466.5,4.23,-28.85,-31.67,0,*76
1502150668.39,28881,19.88,74460.5,4.25,-28.97,-31.67,0,*72
1502150669.61,28882,19.88,74462.5,4.23,-29.01,-31.67,0,*79
1502150670.89,28883,19.88,74464.3,4.25,-28.79,-31.51,0,*75
1502150672.14,28884,19.88,74466.0,4.25,-28.79,-31.45,0,*77
1502150673.37,28885,19.88,74464.0,4.23,-28.85,-31.51,0,*76
1502150674.6,28886,19.88,74462.5,4.25,-28.85,-31.45,0,*76
1502150675.82,28887,19.88,74464.8,4.25,-29.23,-32.01,0,*79
1502150677.07,28888,19.88,74462.8,4.23,-29.13,-31.91,0,*79
1502150678.32,28889,19.88,74464.8,4.25,-29.07,-31.85,0,*7E
1502150679.56,28890,19.88,74460.8,4.23,-29.01,-31.73,0,*7F
1502150680.81,28891,19.88,74466.8,4.25,-28.85,-31.61,0,*76
1502150682.06,28892,19.88,74466.3,4.23,-29.01,-31.73,0,*7D
1502150683.31,28893,19.94,74466.8,4.25,-28.97,-31.61,0,*77
1502150684.53,28894,19.88,74462.8,4.23,-28.97,-31.61,0,*76
1502150685.73,28895,19.88,74462.5,4.27,-29.07,-31.79,0,*72
1502150686.97,28896,19.88,74460.8,4.23,-29.29,-31.91,0,*7F
1502150688.17,28897,19.88,74460.8,4.23,-28.85,-31.67,0,*70
1502150689.4,28898,19.88,74464.0,4.23,-28.85,-31.51,0,*7A
1502150690.65,28899,19.88,74462.5,4.23,-28.91,-31.73,0,*7E
1502150691.92,28900,19.88,74464.0,4.25,-28.79,-31.61,0,*7C
1502150693.15,28901,19.88,74466.5,4.23,-28.69,-31.23,0,*7C
1502150694.37,28902,19.88,74462.5,4.25,-28.69,-31.33,0,*78
1502150695.59,28903,19.88,74464.3,4.23,-29.01,-31.67,0,*71
1502150696.82,28904,19.88,74462.8,4.23,-29.07,-31.73,0,*75
1502150698.04,28905,19.88,74464.3,4.23,-28.91,-31.67,0,*7F
1502150699.26,28906,19.88,74460.3,4.23,-28.91,-31.67,0,*7C
1502150700.51,28907,19.94,74464.5,4.23,-29.13,-31.85,0,*7A
1502150701.73,28908,19.88,74466.5,4.23,-28.75,-31.33,0,*79
1502150702.98,28909,19.94,74466.3,4.23,-29.13,-31.85,0,*74
1502150704.23,28910,19.88,74460.3,4.25,-28.79,-31.45,0,*7B
1502150705.43,28911,19.88,74460.3,4.23,-28.69,-31.33,0,*7C
1502150706.65,28912,19.88,74464.3,4.23,-29.01,-31.67,0,*71
1502150707.87,28913,19.88,74464.0,4.23,-29.23,-31.91,0,*79
1502150709.1,28914,19.88,74462.0,4.23,-29.01,-31.67,0,*77
1502150710.35,28915,19.88,74462.8,4.23,-28.91,-31.57,0,*7D
1502150711.59,28916,19.88,74464.3,4.23,-29.01,-31.73,0,*70
1502150712.84,28917,19.88,74460.0,4.23,-29.13,-31.85,0,*7B
1502150714.06,28918,19.88,74462.3,4.23,-29.13,-32.01,0,*7B
1502150715.33,28919,19.88,74464.5,4.21,-29.13,-31.91,0,*72
1502150716.61,28920,19.88,74462.0,4.21,-29.29,-32.07,0,*7D
1502150717.88,28921,19.88,74460.3,4.21,-29.13,-31.91,0,*79
1502150719.11,28922,19.88,74464.8,4.21,-28.85,-31.67,0,*7D
1502150720.36,28923,19.88,74460.8,4.21,-28.91,-31.67,0,*79
1502150721.61,28924,19.88,74460.0,4.21,-28.69,-31.39,0,*72
1502150722.86,28925,19.88,74464.8,4.21,-28.85,-31.57,0,*79
1502150724.11,28926,19.88,74460.8,4.21,-28.69,-31.39,0,*70
1502150725.34,28927,19.88,74466.5,4.19,-28.59,-31.29,0,*78
1502150726.56,28928,19.88,74462.5,4.21,-28.53,-31.33,0,*7D
1502150727.84,28929,19.88,74460.5,4.21,-28.75,-31.39,0,*72
1502150729.08,28930,19.88,74464.8,4.19,-28.79,-31.57,0,*75
1502150730.31,28931,19.88,74462.3,4.19,-28.97,-31.61,0,*71
1502150731.58,28932,19.88,74464.3,4.21,-28.91,-31.57,0,*7A
1502150732.83,28933,19.88,74462.8,4.21,-29.01,-31.67,0,*70
1502150734.06,28934,19.88,74462.5,4.19,-28.97,-31.61,0,*74
1502150735.33,28935,19.88,74460.3,4.21,-28.75,-31.51,0,*71
1502150736.58,28936,19.88,74462.0,4.21,-29.01,-31.67,0,*75
1502150737.81,28937,19.88,74464.0,4.19,-28.79,-31.45,0,*71
1502150739.03,28938,19.88,74466.0,4.19,-29.07,-31.73,0,*73
1502150740.26,28939,19.88,74460.8,4.19,-28.63,-31.29,0,*7E
1502150741.52,28940,19.88,74462.3,4.21,-28.69,-31.23,0,*7B
1502150742.75,28941,19.88,74460.3,4.19,-28.79,-31.45,0,*70
1502150744.0,28942,19.88,74462.0,4.21,-28.69,-31.39,0,*72
1502150745.25,28943,19.88,74460.3,4.19,-28.63,-31.39,0,*72
1502150746.47,28944,19.88,74462.5,4.21,-28.69,-31.33,0,*7E
1502150747.69,28945,19.88,74462.0,4.19,-28.75,-31.29,0,*72
1502150748.92,28946,19.88,74464.3,4.19,-28.63,-31.29,0,*76
1502150750.18,28947,19.88,74466.3,4.19,-28.91,-31.61,0,*76
1502150751.43,28948,19.88,74462.0,4.19,-28.59,-31.23,0,*7B
1502150752.7,28949,19.88,74462.8,4.21,-28.75,-31.57,0,*7C
1502150753.95,28950,19.88,74462.8,4.19,-28.91,-31.57,0,*75
1502150755.18,28951,19.88,74466.0,4.19,-28.69,-31.23,0,*70
1502150756.43,28952,19.88,74462.8,4.19,-28.91,-31.61,0,*72
1502150757.65,28953,19.88,74460.5,4.19,-28.43,-31.05,0,*7E
1502150758.9,28954,19.88,74464.3,4.21,-28.69,-31.39,0,*75
1502150760.13,28955,19.88,74464.3,4.19,-28.59,-31.17,0,*70
1502150761.36,28956,19.88,74464.8,4.19,-28.75,-31.45,0,*7A
1502150762.61,28957,19.88,74462.0,4.19,-28.59,-31.23,0,*75
1502150763.86,28958,19.88,74462.3,4.19,-28.47,-31.23,0,*75
1502150765.11,28959,19.94,74464.3,4.19,-28.79,-31.61,0,*7F
1502150766.37,28960,19.88,74462.3,4.21,-28.37,-31.11,0,*73
1502150767.65,28961,19.88,74464.0,4.21,-28.91,-31.61,0,*79
1502150768.88,28962,19.88,74462.0,4.19,-28.75,-31.45,0,*7D
1502150770.13,28963,19.88,74462.5,4.21,-28.43,-31.17,0,*75
1502150771.38,28964,19.88,74460.0,4.21,-28.85,-31.57,0,*7C
1502150772.63,28965,19.88,74460.8,4.19,-28.63,-31.39,0,*76
1502150773.88,28966,19.88,74462.8,4.21,-28.69,-31.39,0,*74
1502150775.13,28967,19.88,74462.8,4.19,-28.59,-31.23,0,*76
1502150776.38,28968,19.94,74466.5,4.21,-28.59,-31.33,0,*73
1502150777.64,28969,19.88,74460.8,4.19,-28.59,-31.23,0,*78
1502150778.86,28970,19.88,74460.5,4.21,-28.37,-31.01,0,*73
1502150780.11,28971,19.88,74462.5,4.19,-28.75,-31.57,0,*7C
1502150781.34,28972,19.88,74462.5,4.21,-28.37,-31.17,0,*76
1502150782.57,28973,19.88,74460.8,4.21,-28.37,-31.01,0,*70
1502150783.82,28974,19.88,74466.3,4.19,-28.59,-31.23,0,*74
1502150785.07,28975,19.88,74462.5,4.21,-28.69,-31.39,0,*76
1502150786.29,28976,19.88,74462.0,4.19,-28.75,-31.29,0,*72
1502150787.57,28977,19.88,74462.5,4.21,-28.25,-31.11,0,*76
1502150788.83,28978,19.88,74460.3,4.19,-28.63,-31.23,0,*71
1502150790.12,28979,19.88,74460.0,4.21,-28.21,-30.77,0,*7D
1502150791.35,28980,19.88,74460.8,4.21,-28.53,-31.17,0,*79
1502150792.6,28981,19.88,74462.3,4.19,-28.91,-31.73,0,*7F
1502150793.85,28982,19.88,74460.8,4.21,-28.85,-31.57,0,*74
1502150795.1,28983,19.88,74462.5,4.19,-29.13,-31.91,0,*7A
1502150796.35,28984,19.88,74460.5,4.21,-28.85,-31.51,0,*74
1502150797.59,28985,19.88,74460.5,4.19,-28.79,-31.57,0,*7B
1502150798.81,28986,19.88,74464.3,4.19,-29.07,-31.73,0,*76
1502150800.06,28987,19.88,74460.8,4.19,-28.91,-31.57,0,*7F
1502150801.31,28988,19.88,74462.8,4.19,-28.75,-31.39,0,*72
1502150802.56,28989,19.88,74460.8,4.21,-28.91,-31.67,0,*79
1502150803.79,28990,19.88,74460.0,4.19,-28.59,-31.29,0,*74
1502150805.01,28991,19.88,74462.0,4.19,-28.47,-31.05,0,*74
1502150806.23,28992,19.88,74462.5,4.19,-28.47,-31.17,0,*74
1502150807.48,28993,19.88,74462.8,4.19,-28.75,-31.39,0,*78
1502150808.7,28994,19.88,74460.8,4.19,-28.47,-31.29,0,*7F
1502150809.95,28995,19.88,74460.5,4.19,-28.75,-31.39,0,*7E
1502150811.22,28996,19.88,74466.0,4.17,-28.91,-31.57,0,*71
1502150812.5,28997,19.88,74462.5,4.17,-28.79,-31.57,0,*76
1502150813.78,28998,19.88,74464.8,4.17,-28.91,-31.61,0,*7A
1502150815.07,28999,19.88,74462.0,4.17,-28.59,-31.23,0,*79
1502150816.35,29000,19.88,74462.0,4.17,-28.59,-31.39,0,*7A
1502150817.63,29001,19.88,74462.8,4.17,-28.91,-31.57,0,*77
1502150818.91,29002,19.88,74460.3,4.17,-28.91,-31.61,0,*71
1502150820.17,29003,19.88,74460.5,4.17,-28.59,-31.17,0,*75
1502150821.45,29004,19.88,74462.8,4.17,-28.59,-31.39,0,*7E
1502150822.7,29005,19.88,74458.5,4.17,-28.63,-31.29,0,*77
1502150823.95,29006,19.88,74462.8,4.19,-28.63,-31.39,0,*7B
1502150825.2,29007,19.88,74460.5,4.19,-28.79,-31.57,0,*79
1502150826.45,29008,19.88,74462.5,4.19,-28.63,-31.39,0,*75
1502150827.71,29009,19.88,74462.0,4.17,-28.63,-31.45,0,*71
1502150828.93,29010,19.88,74462.5,4.13,-28.69,-31.33,0,*76
1502150830.15,29011,19.88,74460.3,4.19,-28.47,-31.29,0,*7A
1502150831.41,29012,19.88,74462.0,4.19,-28.59,-31.23,0,*7C
1502150832.66,29013,19.88,74462.0,4.19,-28.47,-31.23,0,*72
1502150833.88,29014,19.88,74464.0,4.19,-28.63,-31.29,0,*79
1502150835.13,29015,19.88,74462.8,4.19,-28.75,-31.57,0,*76
1502150836.35,29016,19.88,74460.3,4.19,-29.07,-31.73,0,*77
1502150837.57,29017,19.88,74460.3,4.19,-28.97,-31.73,0,*7E
1502150838.82,29018,19.88,74464.3,4.19,-28.91,-31.61,0,*74
1502150840.07,29019,19.88,74462.0,4.17,-28.97,-31.73,0,*7E
1502150841.3,29020,19.88,74464.8,4.13,-28.85,-31.67,0,*76
1502150842.58,29021,19.88,74460.8,4.17,-28.79,-31.61,0,*76
1502150843.83,29022,19.88,74460.0,4.17,-28.91,-31.67,0,*75
1502150845.11,29023,19.88,74462.5,4.17,-28.91,-31.57,0,*77
1502150846.36,29024,19.88,74460.5,4.13,-28.97,-31.61,0,*77
1502150847.62,29025,19.88,74462.0,4.13,-28.85,-31.61,0,*75
1502150848.87,29026,19.88,74460.8,4.17,-28.75,-31.45,0,*7B
1502150850.13,29027,19.88,74462.5,4.13,-28.85,-31.61,0,*77
1502150851.39,29028,19.88,74462.3,4.13,-28.85,-31.51,0,*7B
1502150852.66,29029,19.88,74460.3,4.13,-28.79,-31.57,0,*7F
1502150853.92,29030,19.88,74462.0,4.13,-28.63,-31.45,0,*7F
1502150855.15,29031,19.88,74460.5,4.13,-28.53,-31.29,0,*77
1502150856.38,29032,19.88,74460.8,4.13,-28.69,-31.45,0,*77
1502150857.66,29033,19.88,74460.5,4.17,-28.91,-31.61,0,*73
1502150858.94,29034,19.88,74462.3,4.17,-28.79,-31.61,0,*72
1502150860.17,29035,19.88,74462.8,4.13,-28.85,-31.67,0,*72
1502150861.4,29036,19.88,74462.8,4.13,-28.69,-31.45,0,*73
1502150862.66,29037,19.88,74460.3,4.13,-28.85,-31.51,0,*75
1502150863.94,29038,19.88,74460.3,4.13,-28.79,-31.51,0,*79
1502150865.16,29039,19.88,74460.3,4.09,-28.85,-31.67,0,*75
1502150866.42,29040,19.88,74460.8,4.13,-28.85,-31.61,0,*76
1502150867.64,29041,19.88,74462.8,4.13,-28.97,-31.67,0,*72
1502150868.87,29042,19.88,74460.8,4.13,-28.53,-31.29,0,*73
1502150870.12,29043,19.88,74462.5,4.13,-28.69,-31.51,0,*74
1502150871.35,29044,19.88,74460.8,4.13,-28.85,-31.67,0,*74
1502150872.57,29045,19.88,74462.5,4.13,-28.97,-31.67,0,*76
1502150873.82,29046,19.88,74460.3,4.11,-28.75,-31.51,0,*7E
1502150875.07,29047,19.88,74464.8,4.11,-28.75,-31.51,0,*7F
1502150876.35,29048,19.88,74460.3,4.13,-28.79,-31.51,0,*7E
1502150877.6,29049,19.88,74462.0,4.13,-29.01,-31.67,0,*74
1502150878.8,29050,19.88,74462.0,4.11,-28.85,-31.67,0,*73
1502150880.03,29051,19.88,74460.0,4.11,-28.91,-31.67,0,*77
1502150881.26,29052,19.88,74460.0,4.11,-28.75,-31.29,0,*74
1502150882.49,29053,19.88,74458.5,4.11,-28.85,-31.57,0,*73
1502150883.71,29054,19.88,74460.8,4.11,-28.85,-31.57,0,*74
1502150884.96,29055,19.88,74460.3,4.11,-29.01,-31.73,0,*7E
1502150886.21,29056,19.88,74462.0,4.11,-29.17,-31.85,0,*73
1502150887.44,29057,19.88,74462.5,4.11,-29.07,-31.85,0,*73
1502150888.69,29058,19.88,74462.5,4.11,-29.01,-31.85,0,*7A
1502150889.91,29059,19.88,74462.8,4.11,-29.07,-31.73,0,*74
1502150891.19,29060,19.88,74462.0,4.09,-29.17,-31.91,0,*7A
1502150892.47,29061,19.88,74464.0,4.09,-29.01,-31.73,0,*70
1502150893.7,29062,19.88,74464.3,4.09,-29.23,-32.01,0,*75
1502150894.98,29063,19.88,74458.0,4.09,-28.91,-31.57,0,*7C
1502150896.23,29064,19.88,74460.3,4.09,-29.07,-31.73,0,*73
1502150897.48,29065,19.88,74466.5,4.09,-29.07,-31.73,0,*72
1502150898.72,29066,19.88,74460.8,4.07,-28.79,-31.57,0,*71
1502150899.97,29067,19.88,74460.8,4.07,-29.13,-31.91,0,*77
1502150901.18,29068,19.88,74460.8,4.07,-29.07,-31.79,0,*7B
1502150902.43,29069,19.88,74458.5,4.05,-28.97,-31.61,0,*79
1502150903.65,29070,19.88,74460.0,4.07,-29.13,-31.79,0,*77
1502150904.88,29071,19.88,74460.3,4.07,-29.07,-31.73,0,*79